| time (UTC) | temp F | wind direction | speed MPH | gust MPH | rain 1hr in | rain 24hr in | rain mn in | humidity % | barometer mb |
| 20260504174026 | 76 | 198 | 6.0 | 12.0 | 0.00 | 0.00 | 0.00 | 69 | 1015.9 |
| 20260504173526 | 77 | 170 | 5.0 | 12.0 | 0.00 | 0.00 | 0.00 | 68 | 1016.0 |
| 20260504173053 | 77 | 149 | 5.0 | 11.0 | 0.00 | 0.00 | 0.00 | 70 | 1016.0 |
| 20260504172526 | 77 | 155 | 4.0 | 13.0 | 0.00 | 0.00 | 0.00 | 70 | 1015.9 |
| 20260504172027 | 77 | 152 | 7.0 | 13.0 | 0.00 | 0.00 | 0.00 | 70 | 1016.1 |
| 20260504171546 | 77 | 123 | 5.0 | 14.0 | 0.00 | 0.00 | 0.00 | 70 | 1016.2 |
| 20260504171027 | 77 | 192 | 6.0 | 14.0 | 0.00 | 0.00 | 0.00 | 68 | 1016.1 |
| 20260504170526 | 78 | 148 | 4.0 | 12.0 | 0.00 | 0.00 | 0.00 | 69 | 1016.1 |
| 20260504151028 | 76 | 167 | 6.0 | 12.0 | 0.00 | 0.00 | 0.00 | 72 | 1016.7 |
| 20260504150527 | 75 | 143 | 3.0 | 13.0 | 0.00 | 0.00 | 0.00 | 72 | 1016.8 |
| 20260504141027 | 72 | 148 | 2.0 | 5.0 | 0.00 | 0.00 | 0.00 | 79 | 1016.5 |
| 20260504140526 | 72 | 167 | 2.0 | 7.0 | 0.00 | 0.00 | 0.00 | 80 | 1016.4 |
| 20260504130530 | 59 | 0 | 0.0 | 0.0 | 0.00 | 0.00 | 0.00 | 98 | 1016.7 |
| 20260504120109 | 55 | 0 | 0.0 | 0.0 | 0.00 | 0.00 | 0.00 | 97 | 1016.4 |
| 20260504110529 | 55 | 0 | 0.0 | 0.0 | 0.00 | 0.00 | 0.00 | 97 | 1016.4 |
| 20260504100528 | 55 | 0 | 0.0 | 0.0 | 0.00 | 0.00 | 0.00 | 96 | 1016.4 |
| 20260504081543 | 56 | 0 | 0.0 | 0.0 | 0.00 | 0.00 | 0.00 | 95 | 1017.2 |
| 20260504081031 | 56 | 0 | 0.0 | 0.0 | 0.00 | 0.00 | 0.00 | 95 | 1017.5 |
| 20260504080528 | 56 | 0 | 0.0 | 0.0 | 0.00 | 0.00 | 0.00 | 95 | 1017.4 |
| 20260504050529 | 57 | 0 | 0.0 | 0.0 | 0.00 | 0.00 | 0.00 | 92 | 1019.2 |
| 20260504050105 | 57 | 0 | 0.0 | 0.0 | 0.00 | 0.00 | 0.00 | 92 | 1019.2 |
| 20260504045528 | 57 | 0 | 0.0 | 0.0 | 0.00 | 0.00 | 0.00 | 92 | 1019.2 |
| 20260504045026 | 57 | 0 | 0.0 | 0.0 | 0.00 | 0.00 | 0.00 | 92 | 1019.3 |
| 20260504044545 | 57 | 0 | 0.0 | 0.0 | 0.00 | 0.00 | 0.00 | 91 | 1019.4 |
| 20260504044026 | 57 | 0 | 0.0 | 0.0 | 0.00 | 0.00 | 0.00 | 91 | 1019.4 |
| 20260504043529 | 57 | 0 | 0.0 | 0.0 | 0.00 | 0.00 | 0.00 | 91 | 1019.4 |
| 20260504043045 | 57 | 0 | 0.0 | 0.0 | 0.00 | 0.00 | 0.00 | 90 | 1019.3 |
| 20260504042530 | 57 | 0 | 0.0 | 0.0 | 0.00 | 0.00 | 0.00 | 90 | 1019.4 |
| 20260504042025 | 57 | 0 | 0.0 | 0.0 | 0.00 | 0.00 | 0.00 | 90 | 1019.4 |
| 20260504041543 | 58 | 0 | 0.0 | 0.0 | 0.00 | 0.00 | 0.00 | 89 | 1019.3 |
| 20260504041029 | 58 | 0 | 0.0 | 0.0 | 0.00 | 0.00 | 0.00 | 89 | 1019.2 |
| 20260504040533 | 58 | 0 | 0.0 | 0.0 | 0.00 | 0.00 | 0.00 | 89 | 1019.2 |
| 20260504040046 | 58 | 0 | 0.0 | 0.0 | 0.00 | 0.00 | 0.00 | 89 | 1019.3 |
| 20260504035529 | 58 | 0 | 0.0 | 0.0 | 0.00 | 0.00 | 0.00 | 89 | 1019.3 |
| 20260504035029 | 58 | 0 | 0.0 | 0.0 | 0.00 | 0.00 | 0.00 | 88 | 1019.4 |
| 20260504034549 | 58 | 0 | 0.0 | 0.0 | 0.00 | 0.00 | 0.00 | 88 | 1019.3 |
| 20260504034030 | 58 | 0 | 0.0 | 0.0 | 0.00 | 0.00 | 0.00 | 87 | 1019.3 |
| 20260504033534 | 59 | 0 | 0.0 | 0.0 | 0.00 | 0.00 | 0.00 | 87 | 1019.2 |
| 20260504033046 | 59 | 0 | 0.0 | 0.0 | 0.00 | 0.00 | 0.00 | 87 | 1019.4 |
| 20260504032528 | 59 | 0 | 0.0 | 0.0 | 0.00 | 0.00 | 0.00 | 87 | 1019.4 |
| 20260504032028 | 59 | 0 | 0.0 | 0.0 | 0.00 | 0.00 | 0.00 | 86 | 1019.4 |
| 20260504031558 | 59 | 0 | 0.0 | 0.0 | 0.00 | 0.00 | 0.00 | 86 | 1019.2 |
| 20260504031031 | 60 | 0 | 0.0 | 0.0 | 0.00 | 0.00 | 0.00 | 85 | 1019.2 |
| 20260504030526 | 60 | 0 | 0.0 | 0.0 | 0.00 | 0.00 | 0.00 | 85 | 1019.2 |
| 20260504030046 | 60 | 0 | 0.0 | 0.0 | 0.00 | 0.00 | 0.00 | 85 | 1019.2 |
| 20260504025534 | 60 | 0 | 0.0 | 0.0 | 0.00 | 0.00 | 0.00 | 85 | 1019.2 |
| 20260504025025 | 60 | 0 | 0.0 | 0.0 | 0.00 | 0.00 | 0.00 | 84 | 1019.2 |
| 20260504024543 | 61 | 0 | 0.0 | 0.0 | 0.00 | 0.00 | 0.00 | 83 | 1019.2 |
| 20260504024029 | 61 | 0 | 0.0 | 0.0 | 0.00 | 0.00 | 0.00 | 83 | 1019.2 |
| 20260504023526 | 61 | 0 | 0.0 | 0.0 | 0.00 | 0.00 | 0.00 | 83 | 1019.2 |
| 20260504023043 | 61 | 0 | 0.0 | 0.0 | 0.00 | 0.00 | 0.00 | 82 | 1019.1 |
| 20260504022528 | 62 | 0 | 0.0 | 0.0 | 0.00 | 0.00 | 0.00 | 82 | 1019.2 |
| 20260504022028 | 62 | 0 | 0.0 | 0.0 | 0.00 | 0.00 | 0.00 | 81 | 1019.1 |
| 20260504021542 | 63 | 0 | 0.0 | 0.0 | 0.00 | 0.00 | 0.00 | 81 | 1019.1 |
| 20260504021029 | 63 | 0 | 0.0 | 0.0 | 0.00 | 0.00 | 0.00 | 80 | 1019.1 |
| 20260504020526 | 63 | 0 | 0.0 | 0.0 | 0.00 | 0.00 | 0.00 | 78 | 1019.2 |
| 20260504020047 | 64 | 0 | 0.0 | 0.0 | 0.00 | 0.00 | 0.00 | 77 | 1019.0 |
| 20260504015526 | 64 | 0 | 0.0 | 0.0 | 0.00 | 0.00 | 0.00 | 77 | 1019.1 |
| 20260504015025 | 64 | 0 | 0.0 | 0.0 | 0.00 | 0.00 | 0.00 | 76 | 1019.1 |
| 20260504014546 | 64 | 0 | 0.0 | 0.0 | 0.00 | 0.00 | 0.00 | 75 | 1019.0 |
| 20260504014026 | 65 | 0 | 0.0 | 0.0 | 0.00 | 0.00 | 0.00 | 74 | 1019.1 |
| 20260504013526 | 65 | 0 | 0.0 | 0.0 | 0.00 | 0.00 | 0.00 | 75 | 1019.2 |
| 20260504013042 | 66 | 0 | 0.0 | 0.0 | 0.00 | 0.00 | 0.00 | 73 | 1019.2 |
| 20260504012526 | 66 | 0 | 0.0 | 0.0 | 0.00 | 0.00 | 0.00 | 73 | 1018.9 |
| 20260504012026 | 67 | 0 | 0.0 | 2.0 | 0.00 | 0.00 | 0.00 | 72 | 1019.0 |
| 20260504011550 | 67 | 0 | 0.0 | 2.0 | 0.00 | 0.00 | 0.00 | 71 | 1018.8 |
| 20260504011027 | 67 | 178 | 0.0 | 1.0 | 0.00 | 0.00 | 0.00 | 68 | 1018.9 |
| 20260504010530 | 68 | 0 | 0.0 | 1.0 | 0.00 | 0.00 | 0.00 | 66 | 1019.0 |
| 20260504010045 | 68 | 0 | 0.0 | 1.0 | 0.00 | 0.00 | 0.00 | 65 | 1019.0 |
| 20260504005525 | 69 | 184 | 1.0 | 3.0 | 0.00 | 0.00 | 0.00 | 64 | 1018.9 |
| 20260504005028 | 69 | 360 | 1.0 | 3.0 | 0.00 | 0.00 | 0.00 | 63 | 1018.9 |
| 20260504004541 | 69 | 360 | 1.0 | 3.0 | 0.00 | 0.00 | 0.00 | 62 | 1019.0 |
| 20260504004029 | 69 | 186 | 1.0 | 2.0 | 0.00 | 0.00 | 0.00 | 62 | 1019.0 |
| 20260504003526 | 70 | 360 | 1.0 | 2.0 | 0.00 | 0.00 | 0.00 | 62 | 1018.9 |
| 20260504003049 | 70 | 360 | 1.0 | 3.0 | 0.00 | 0.00 | 0.00 | 59 | 1018.8 |
| 20260504002526 | 70 | 184 | 2.0 | 5.0 | 0.00 | 0.00 | 0.00 | 59 | 1018.8 |
| 20260504002028 | 71 | 360 | 2.0 | 5.0 | 0.00 | 0.00 | 0.00 | 58 | 1018.9 |
| 20260504001601 | 71 | 360 | 1.0 | 4.0 | 0.00 | 0.00 | 0.00 | 57 | 1018.9 |
| 20260504001026 | 71 | 360 | 1.0 | 3.0 | 0.00 | 0.00 | 0.00 | 57 | 1019.1 |
| 20260504000525 | 72 | 360 | 1.0 | 6.0 | 0.00 | 0.00 | 0.00 | 56 | 1019.0 |
| 20260504000045 | 72 | 360 | 3.0 | 6.0 | 0.00 | 0.00 | 0.00 | 55 | 1018.9 |
| 20260503235529 | 72 | 360 | 1.0 | 5.0 | 0.00 | 0.00 | 0.00 | 56 | 1019.1 |
| 20260503235026 | 72 | 213 | 1.0 | 6.0 | 0.00 | 0.00 | 0.00 | 55 | 1019.2 |
| 20260503234545 | 72 | 221 | 3.0 | 6.0 | 0.00 | 0.00 | 0.00 | 55 | 1019.1 |
| 20260503234028 | 72 | 360 | 2.0 | 5.0 | 0.00 | 0.00 | 0.00 | 55 | 1019.3 |
| 20260503233526 | 73 | 207 | 3.0 | 6.0 | 0.00 | 0.00 | 0.00 | 54 | 1019.2 |
| 20260503233044 | 73 | 189 | 1.0 | 8.0 | 0.00 | 0.00 | 0.00 | 53 | 1019.3 |
| 20260503232527 | 73 | 178 | 2.0 | 9.0 | 0.00 | 0.00 | 0.00 | 54 | 1019.3 |
| 20260503232026 | 73 | 170 | 4.0 | 9.0 | 0.00 | 0.00 | 0.00 | 53 | 1019.3 |
| 20260503231548 | 73 | 173 | 3.0 | 9.0 | 0.00 | 0.00 | 0.00 | 52 | 1019.4 |
| 20260503231025 | 73 | 165 | 4.0 | 9.0 | 0.00 | 0.00 | 0.00 | 51 | 1019.4 |
| 20260503230529 | 74 | 171 | 4.0 | 9.0 | 0.00 | 0.00 | 0.00 | 52 | 1019.4 |
| 20260503230041 | 74 | 161 | 3.0 | 8.0 | 0.00 | 0.00 | 0.00 | 52 | 1019.5 |
| 20260503225531 | 74 | 150 | 3.0 | 8.0 | 0.00 | 0.00 | 0.00 | 52 | 1019.4 |
| 20260503225028 | 74 | 160 | 5.0 | 8.0 | 0.00 | 0.00 | 0.00 | 51 | 1019.4 |
| 20260503224548 | 74 | 169 | 3.0 | 10.0 | 0.00 | 0.00 | 0.00 | 52 | 1019.6 |
| 20260503224029 | 74 | 182 | 4.0 | 10.0 | 0.00 | 0.00 | 0.00 | 51 | 1019.7 |
| 20260503223527 | 74 | 360 | 4.0 | 13.0 | 0.00 | 0.00 | 0.00 | 51 | 1019.8 |
| 20260503223047 | 74 | 150 | 4.0 | 13.0 | 0.00 | 0.00 | 0.00 | 49 | 1019.9 |
| 20260503222525 | 75 | 172 | 4.0 | 13.0 | 0.00 | 0.00 | 0.00 | 51 | 1019.9 |
| 20260503222025 | 75 | 173 | 3.0 | 8.0 | 0.00 | 0.00 | 0.00 | 51 | 1019.7 |
| 20260503221545 | 75 | 160 | 4.0 | 8.0 | 0.00 | 0.00 | 0.00 | 50 | 1019.7 |
| 20260503221026 | 74 | 223 | 2.0 | 8.0 | 0.00 | 0.00 | 0.00 | 49 | 1019.6 |
| 20260503220529 | 75 | 162 | 2.0 | 7.0 | 0.00 | 0.00 | 0.00 | 50 | 1019.8 |
| 20260503220047 | 75 | 167 | 2.0 | 9.0 | 0.00 | 0.00 | 0.00 | 50 | 1019.7 |
| 20260503215526 | 75 | 150 | 2.0 | 10.0 | 0.00 | 0.00 | 0.00 | 51 | 1019.9 |
| 20260503215025 | 75 | 166 | 4.0 | 10.0 | 0.00 | 0.00 | 0.00 | 49 | 1020.0 |
| 20260503214550 | 75 | 166 | 3.0 | 8.0 | 0.00 | 0.00 | 0.00 | 48 | 1020.0 |
| 20260503214025 | 75 | 165 | 3.0 | 9.0 | 0.00 | 0.00 | 0.00 | 48 | 1020.0 |
| 20260503213525 | 75 | 166 | 6.0 | 9.0 | 0.00 | 0.00 | 0.00 | 49 | 1020.0 |
| 20260503213102 | 75 | 174 | 3.0 | 8.0 | 0.00 | 0.00 | 0.00 | 50 | 1020.2 |
| 20260503212525 | 75 | 169 | 5.0 | 9.0 | 0.00 | 0.00 | 0.00 | 48 | 1020.3 |
| 20260503212025 | 75 | 163 | 3.0 | 11.0 | 0.00 | 0.00 | 0.00 | 49 | 1020.2 |
| 20260503211600 | 75 | 155 | 2.0 | 11.0 | 0.00 | 0.00 | 0.00 | 49 | 1020.4 |
| 20260503211028 | 76 | 172 | 5.0 | 11.0 | 0.00 | 0.00 | 0.00 | 47 | 1020.5 |
| 20260503210529 | 75 | 0 | 0.0 | 10.0 | 0.00 | 0.00 | 0.00 | 53 | 1020.5 |
| 20260503210045 | 75 | 165 | 6.0 | 10.0 | 0.00 | 0.00 | 0.00 | 48 | 1020.5 |
| 20260503205526 | 76 | 152 | 4.0 | 9.0 | 0.00 | 0.00 | 0.00 | 48 | 1020.5 |
| 20260503205029 | 76 | 150 | 2.0 | 7.0 | 0.00 | 0.00 | 0.00 | 46 | 1020.6 |
| 20260503204558 | 76 | 138 | 1.0 | 9.0 | 0.00 | 0.00 | 0.00 | 52 | 1020.7 |
| 20260503204026 | 75 | 178 | 3.0 | 9.0 | 0.00 | 0.00 | 0.00 | 47 | 1020.8 |
| 20260503203525 | 77 | 165 | 3.0 | 9.0 | 0.00 | 0.00 | 0.00 | 46 | 1020.9 |
| 20260503203042 | 77 | 133 | 1.0 | 7.0 | 0.00 | 0.00 | 0.00 | 48 | 1021.0 |
| 20260503202526 | 77 | 140 | 1.0 | 6.0 | 0.00 | 0.00 | 0.00 | 45 | 1021.1 |
| 20260503202026 | 77 | 62 | 1.0 | 11.0 | 0.00 | 0.00 | 0.00 | 47 | 1021.2 |
| 20260503201545 | 76 | 41 | 3.0 | 11.0 | 0.00 | 0.00 | 0.00 | 48 | 1021.3 |
| 20260503201025 | 77 | 167 | 2.0 | 5.0 | 0.00 | 0.00 | 0.00 | 47 | 1021.3 |
| 20260503200525 | 77 | 128 | 1.0 | 11.0 | 0.00 | 0.00 | 0.00 | 45 | 1021.4 |
| 20260503200044 | 76 | 167 | 4.0 | 11.0 | 0.00 | 0.00 | 0.00 | 47 | 1021.5 |
| 20260503195525 | 78 | 171 | 2.0 | 10.0 | 0.00 | 0.00 | 0.00 | 46 | 1021.5 |
| 20260503195025 | 77 | 182 | 1.0 | 7.0 | 0.00 | 0.00 | 0.00 | 52 | 1021.5 |
| 20260503194541 | 76 | 187 | 4.0 | 7.0 | 0.00 | 0.00 | 0.00 | 47 | 1021.5 |
| 20260503194025 | 77 | 169 | 0.0 | 6.0 | 0.00 | 0.00 | 0.00 | 43 | 1021.5 |
| 20260503193525 | 77 | 162 | 1.0 | 6.0 | 0.00 | 0.00 | 0.00 | 46 | 1021.6 |
| 20260503193045 | 77 | 146 | 3.0 | 5.0 | 0.00 | 0.00 | 0.00 | 47 | 1021.8 |
| 20260503192525 | 78 | 111 | 0.0 | 2.0 | 0.00 | 0.00 | 0.00 | 41 | 1021.8 |
| 20260503192026 | 78 | 57 | 1.0 | 4.0 | 0.00 | 0.00 | 0.00 | 44 | 1021.9 |
| 20260503191556 | 77 | 113 | 0.0 | 5.0 | 0.00 | 0.00 | 0.00 | 46 | 1021.9 |
| 20260503191026 | 77 | 130 | 2.0 | 5.0 | 0.00 | 0.00 | 0.00 | 45 | 1021.9 |
| 20260503190525 | 77 | 49 | 2.0 | 5.0 | 0.00 | 0.00 | 0.00 | 42 | 1021.9 |
| 20260503190044 | 77 | 106 | 1.0 | 4.0 | 0.00 | 0.00 | 0.00 | 44 | 1022.2 |
| 20260503185528 | 77 | 76 | 2.0 | 4.0 | 0.00 | 0.00 | 0.00 | 47 | 1022.1 |
| 20260503185027 | 77 | 51 | 1.0 | 4.0 | 0.00 | 0.00 | 0.00 | 40 | 1022.2 |
| 20260503184604 | 77 | 112 | 1.0 | 4.0 | 0.00 | 0.00 | 0.00 | 44 | 1022.2 |
| 20260503184030 | 76 | 34 | 1.0 | 4.0 | 0.00 | 0.00 | 0.00 | 47 | 1022.4 |
| 20260503183528 | 76 | 24 | 2.0 | 4.0 | 0.00 | 0.00 | 0.00 | 43 | 1022.6 |
| 20260503183046 | 77 | 94 | 1.0 | 3.0 | 0.00 | 0.00 | 0.00 | 43 | 1022.7 |
| 20260503182530 | 77 | 0 | 1.0 | 5.0 | 0.00 | 0.00 | 0.00 | 52 | 1022.7 |
| 20260503182027 | 76 | 0 | 2.0 | 6.0 | 0.00 | 0.00 | 0.00 | 46 | 1022.8 |
| 20260503181550 | 78 | 0 | 1.0 | 6.0 | 0.00 | 0.00 | 0.00 | 47 | 1022.9 |
| 20260503181027 | 77 | 64 | 0.0 | 4.0 | 0.00 | 0.00 | 0.00 | 45 | 1022.9 |
| 20260503180527 | 76 | 62 | 1.0 | 6.0 | 0.00 | 0.00 | 0.00 | 51 | 1022.9 |
| 20260503180046 | 77 | 99 | 1.0 | 6.0 | 0.00 | 0.00 | 0.00 | 42 | 1023.0 |
| 20260503175527 | 76 | 141 | 2.0 | 6.0 | 0.00 | 0.00 | 0.00 | 44 | 1023.1 |
| 20260503175027 | 77 | 83 | 1.0 | 4.0 | 0.00 | 0.00 | 0.00 | 53 | 1023.2 |
| 20260503174600 | 76 | 22 | 1.0 | 5.0 | 0.00 | 0.00 | 0.00 | 41 | 1023.2 |